Regional Weather Roundup
Issued by NWS Huntsville, AL

Home | Current Version | Previous Version | Text Only | Print | Product List | Glossary On
Versions: 1 2 3 4 5 6 7 8 9 10 11 12 13 14 15 16 17 18 19 20 21 22 23 24 25 26 27 28
000
ASUS44 KHUN 261810
RWRHUN

WEATHER ROUNDUP FOR THE TENNESSEE VALLEY
NATIONAL WEATHER SERVICE HUNTSVILLE AL
100 PM CDT FRI MAY 26 2017

ALZ001>004-261900-
NORTHWEST ALABAMA

CITY           SKY/WX    TMP DP  RH WIND       PRES   REMARKS
SHOALS AIRPORT SUNNY     84  61  45 S13G18    29.98F
6HR MIN TEMP:  59; 6HR MAX TEMP:  85;

$$

ALZ005>007-016-261900-
NORTH CENTRAL ALABAMA

CITY           SKY/WX    TMP DP  RH WIND       PRES   REMARKS
DECATUR AP     SUNNY     84  63  49 S9        30.01F
6HR MIN TEMP:  59; 6HR MAX TEMP:  84;

HUNTSVILLE AP  MOSUNNY   81  65  58 S9        30.01F
6HR MIN TEMP:  59; 6HR MAX TEMP:  82;

MERIDIANVILLE  MOSUNNY   79  59  50 S8        30.01F
REDSTONE ARSN  SUNNY     80  62  54 W8        30.00F
VINEMONT AP    FAIR      79  62  56 S12G17    30.06S
$$

ALZ008>010-261900-
NORTHEAST ALABAMA

CITY           SKY/WX    TMP DP  RH WIND       PRES   REMARKS
ALBERTVILLE    SUNNY     79  68  69 S7        30.04F
FORT PAYNE     MOSUNNY   79  55  44 W6        30.05S
SCOTTSBORO HCN   N/A     77 N/A N/A MISG        N/A
VALLEY HEAD      N/A     77 N/A N/A MISG        N/A
$$

TNZ076-096-097-261900-
SOUTHEASTERN MIDDLE TENNESSEE

CITY           SKY/WX    TMP DP  RH WIND       PRES   REMARKS
TULLAHOMA      SUNNY     79  63  57 S12       30.01F
WINCHESTER     SUNNY     79  63  57 SW8         N/A
$$

...SURROUNDING SITES...

CITY           SKY/WX    TMP DP  RH WIND       PRES   REMARKS
ATLANTA        MOSUNNY   79  59  50 W13       30.05F
ANNISTON       SUNNY     79  61  53 SW9       30.05S
BIRMINGHAM     MOSUNNY   82  61  48 S8        30.05F
CHATTANOOGA    PTSUNNY   80  58  46 VRB6      30.03F
CORINTH        FAIR      84  55  37 S16G28    29.94F
DALTON         CLOUDY    77  59  53 SE6       30.04F
GADSDEN        SUNNY     80  62  54 SW6       30.04F
GOLDEN TRNGL   SUNNY     82  61  47 S12       29.95F
HALEYVILLE     FAIR      81  64  56 VRB7      30.03F
JACKSON TN     SUNNY     84  57  39 S16G24    29.89F
MEMPHIS        MOSUNNY   83  63  50 SW23G32   29.90S
NASHVILLE      MOSUNNY   83  62  49 S13       29.94F
ROME           MOSUNNY   81  60  48 NW8G16    30.04S
SAVANNAH       SUNNY     84  61  45 S13G21    29.94F
SELMER         SUNNY     82  57  42 SW15G21   29.93S
TUPELO         SUNNY     83  58  42 S12       29.96F
TUSCALOOSA     SUNNY     83  64  52 S13       30.01F
$$

...GULF COAST WEATHER...

CITY           SKY/WX    TMP DP  RH WIND       PRES   REMARKS
GULFPORT       SUNNY     81  65  58 S9        30.05F
PASCAGOULA     SUNNY     82  62  50 S8G17     30.07R
MOBILE         MOSUNNY   83  61  47 S13G20    30.07S
GULF SHORES    CLEAR     79  63  57 SE13G20   30.08S
PENSACOLA      SUNNY     81  58  45 S13       30.08S
DESTIN         SUNNY     83  62  49 S9        30.08S
PANAMA CITY    MOSUNNY   80  60  49 SW10      30.08S
APPALACHICOLA  SUNNY     80  62  54 S12       30.08F
$$





USA.gov is the U.S. government's official web portal to all federal, state and local government web resources and services.